TimeEST,TemperatureF,Dew PointF,Humidity,Sea Level PressureIn,VisibilityMPH,Wind Direction,Wind SpeedMPH,Gust SpeedMPH,PrecipitationIn,Events,Conditions,WindDirDegrees,DateUTC
12:51 AM,30.0,21.9,72,30.33,10.0,Calm,Calm,-,N/A,,Scattered Clouds,0,2013-02-23 05:51:00
1:51 AM,27.0,21.0,78,30.31,10.0,Calm,Calm,-,N/A,,Overcast,0,2013-02-23 06:51:00
2:51 AM,28.0,21.9,78,30.30,10.0,Calm,Calm,-,N/A,,Overcast,0,2013-02-23 07:51:00
3:51 AM,28.9,21.9,75,30.29,10.0,Calm,Calm,-,N/A,,Overcast,0,2013-02-23 08:51:00
4:51 AM,28.9,21.9,75,30.27,10.0,Calm,Calm,-,N/A,,Overcast,0,2013-02-23 09:51:00
5:09 AM,28.4,23.0,80,30.25,10.0,Calm,Calm,-,N/A,,Overcast,0,2013-02-23 10:09:00
5:51 AM,30.0,23.0,75,30.26,10.0,Calm,Calm,-,N/A,,Overcast,0,2013-02-23 10:51:00
6:49 AM,28.4,23.0,80,30.24,8.0,Calm,Calm,-,N/A,,Overcast,0,2013-02-23 11:49:00
6:51 AM,28.9,23.0,78,30.26,7.0,Calm,Calm,-,0.00,Snow,Light Snow,0,2013-02-23 11:51:00
7:06 AM,28.4,24.8,86,30.24,2.0,Calm,Calm,-,0.00,Snow,Light Snow,0,2013-02-23 12:06:00
7:19 AM,28.4,24.8,86,30.24,5.0,Calm,Calm,-,0.00,Snow,Light Snow,0,2013-02-23 12:19:00
7:47 AM,30.2,24.8,80,30.23,10.0,Calm,Calm,-,0.00,,Overcast,0,2013-02-23 12:47:00
7:51 AM,30.0,25.0,82,30.25,10.0,Calm,Calm,-,0.00,,Overcast,0,2013-02-23 12:51:00
8:16 AM,30.2,26.6,86,30.23,10.0,Calm,Calm,-,N/A,,Overcast,0,2013-02-23 13:16:00
8:38 AM,30.2,24.8,80,30.23,10.0,Calm,Calm,-,N/A,,Overcast,0,2013-02-23 13:38:00
8:51 AM,30.9,25.0,79,30.24,10.0,Calm,Calm,-,N/A,,Overcast,0,2013-02-23 13:51:00
9:51 AM,32.0,26.1,79,30.22,10.0,Calm,Calm,-,N/A,,Overcast,0,2013-02-23 14:51:00
10:51 AM,33.1,27.0,78,30.21,10.0,SE,6.9,-,N/A,,Overcast,140,2013-02-23 15:51:00
10:59 AM,33.8,26.6,75,30.19,9.0,SSE,8.1,-,N/A,,Overcast,150,2013-02-23 15:59:00
11:15 AM,33.8,28.4,81,30.18,3.0,SE,5.8,-,0.00,Snow,Light Snow,130,2013-02-23 16:15:00
11:17 AM,33.8,28.4,81,30.18,2.5,ESE,5.8,-,0.00,Snow,Light Snow,120,2013-02-23 16:17:00
11:19 AM,33.8,28.4,81,30.17,3.0,SE,4.6,-,0.00,Snow,Light Snow,140,2013-02-23 16:19:00
11:51 AM,33.1,28.0,82,30.17,9.0,SE,5.8,-,0.00,,Overcast,140,2013-02-23 16:51:00
11:59 AM,33.8,28.4,81,30.15,10.0,East,3.5,-,N/A,,Overcast,100,2013-02-23 16:59:00
12:51 PM,34.0,27.0,75,30.15,10.0,SE,6.9,-,N/A,,Overcast,140,2013-02-23 17:51:00
1:51 PM,34.0,28.0,79,30.14,10.0,SE,6.9,-,N/A,,Overcast,130,2013-02-23 18:51:00
2:33 PM,33.8,28.4,81,30.11,1.8,SE,8.1,-,0.00,Snow,Light Snow,130,2013-02-23 19:33:00
2:41 PM,33.8,30.2,87,30.11,1.0,SE,4.6,-,0.00,Snow,Light Snow,130,2013-02-23 19:41:00
2:49 PM,33.8,30.2,87,30.11,0.8,SE,4.6,-,0.01,Snow,Light Snow,140,2013-02-23 19:49:00
2:51 PM,33.1,30.0,89,30.12,0.8,SE,3.5,-,0.01,Snow,Light Snow,140,2013-02-23 19:51:00
3:00 PM,33.8,30.2,87,30.10,1.0,SE,3.5,-,0.00,Snow,Light Snow,130,2013-02-23 20:00:00
3:16 PM,33.8,30.2,87,30.11,1.0,Calm,Calm,-,0.01,Snow,Light Snow,0,2013-02-23 20:16:00
3:25 PM,33.8,30.2,87,30.10,1.2,Calm,Calm,-,0.01,Snow,Light Snow,0,2013-02-23 20:25:00
3:29 PM,33.8,32.0,93,30.10,2.0,Calm,Calm,-,0.01,Snow,Light Snow,0,2013-02-23 20:29:00
3:48 PM,33.8,30.2,87,30.09,1.8,East,3.5,-,0.01,Snow,Light Snow,80,2013-02-23 20:48:00
3:51 PM,33.1,32.0,96,30.10,2.0,East,4.6,-,0.01,Snow,Light Snow,90,2013-02-23 20:51:00
4:00 PM,33.8,30.2,87,30.08,3.0,East,3.5,-,0.00,Snow,Light Snow,90,2013-02-23 21:00:00
4:10 PM,33.8,32.0,93,30.08,3.0,East,5.8,-,0.00,Snow,Light Snow,100,2013-02-23 21:10:00
4:51 PM,33.1,30.9,92,30.09,4.0,ESE,3.5,-,0.00,,Overcast,120,2013-02-23 21:51:00
4:58 PM,33.8,30.2,87,30.08,2.5,ESE,3.5,-,0.00,Snow,Light Snow,120,2013-02-23 21:58:00
5:11 PM,32.0,30.2,93,30.07,1.5,East,3.5,-,0.00,Snow,Light Snow,90,2013-02-23 22:11:00
5:19 PM,32.0,30.2,93,30.07,1.2,East,3.5,-,0.01,Snow,Light Snow,100,2013-02-23 22:19:00
5:26 PM,32.0,30.2,93,30.07,1.2,ESE,3.5,-,0.01,Snow,Light Snow,120,2013-02-23 22:26:00
5:30 PM,32.0,30.2,93,30.07,1.5,East,4.6,-,0.01,Snow,Light Snow,100,2013-02-23 22:30:00
5:37 PM,32.0,30.2,93,30.06,3.0,ESE,3.5,-,0.01,Snow,Light Snow,110,2013-02-23 22:37:00
5:51 PM,32.0,30.9,96,30.07,5.0,East,5.8,-,0.02,Snow,Light Snow,90,2013-02-23 22:51:00
6:24 PM,32.0,30.2,93,30.05,2.0,East,4.6,-,0.01,Snow,Light Snow,90,2013-02-23 23:24:00
6:39 PM,32.0,30.2,93,30.05,2.0,East,3.5,-,0.01,Snow,Light Snow,90,2013-02-23 23:39:00
6:51 PM,32.0,30.9,96,30.06,2.5,East,3.5,-,0.01,Snow,Light Snow,100,2013-02-23 23:51:00
7:04 PM,32.0,30.2,93,30.04,3.0,East,3.5,-,0.01,Snow,Light Snow,100,2013-02-24 00:04:00
7:07 PM,32.0,30.2,93,30.04,2.5,Calm,Calm,-,0.01,Snow,Light Snow,0,2013-02-24 00:07:00
7:22 PM,32.0,30.2,93,30.04,3.0,East,4.6,-,0.01,Snow,Light Snow,90,2013-02-24 00:22:00
7:37 PM,32.0,30.2,93,30.04,2.0,ESE,3.5,-,0.01,Snow,Light Snow,110,2013-02-24 00:37:00
7:51 PM,32.0,30.9,96,30.05,3.0,East,3.5,-,0.01,Snow,Light Snow,100,2013-02-24 00:51:00
8:04 PM,32.0,30.2,93,30.03,4.0,East,3.5,-,0.01,Snow,Light Snow,100,2013-02-24 01:04:00
8:42 PM,32.0,30.2,93,30.02,2.5,Variable,3.5,-,0.01,Snow,Light Snow,0,2013-02-24 01:42:00
8:48 PM,32.0,30.2,93,30.02,3.0,Calm,Calm,-,0.01,Snow,Light Snow,0,2013-02-24 01:48:00
8:51 PM,32.0,30.9,96,30.03,3.0,Calm,Calm,-,0.01,Snow,Light Snow,0,2013-02-24 01:51:00
8:58 PM,32.0,32.0,100,30.02,2.0,Calm,Calm,-,0.00,Snow,Light Snow,0,2013-02-24 01:58:00
9:12 PM,32.0,32.0,100,30.01,1.8,Calm,Calm,-,0.00,Snow,Light Snow,0,2013-02-24 02:12:00
9:19 PM,32.0,32.0,100,30.00,2.5,Calm,Calm,-,0.00,Snow,Light Snow,0,2013-02-24 02:19:00
9:27 PM,32.0,32.0,100,30.00,2.0,Calm,Calm,-,0.01,Snow,Light Snow,0,2013-02-24 02:27:00
9:40 PM,32.0,30.2,93,30.00,1.8,Calm,Calm,-,0.01,Snow,Light Snow,0,2013-02-24 02:40:00
9:49 PM,32.0,30.2,93,30.00,2.0,Calm,Calm,-,0.01,Snow,Light Snow,0,2013-02-24 02:49:00
9:51 PM,32.0,30.9,96,30.02,2.0,Calm,Calm,-,0.01,Snow,Light Snow,0,2013-02-24 02:51:00
10:01 PM,32.0,30.2,93,30.00,2.5,Calm,Calm,-,0.00,,Overcast,0,2013-02-24 03:01:00
10:13 PM,32.0,32.0,100,29.99,1.2,Calm,Calm,-,0.01,Snow,Light Snow,0,2013-02-24 03:13:00
10:47 PM,32.0,30.2,93,29.97,1.5,Calm,Calm,-,0.02,Snow,Light Snow,0,2013-02-24 03:47:00
10:51 PM,32.0,30.9,96,29.99,1.5,Calm,Calm,-,0.02,Snow,Light Snow,0,2013-02-24 03:51:00
11:10 PM,32.0,30.2,93,29.96,2.5,Calm,Calm,-,0.00,Snow,Light Snow,0,2013-02-24 04:10:00
11:20 PM,32.0,30.2,93,29.97,3.0,Calm,Calm,-,0.00,Snow,Light Snow,0,2013-02-24 04:20:00
11:26 PM,32.0,30.2,93,29.96,2.5,Calm,Calm,-,0.00,Snow,Light Snow,0,2013-02-24 04:26:00
11:51 PM,32.0,30.9,96,29.96,2.0,NE,3.5,-,0.01,Snow,Light Snow,40,2013-02-24 04:51:00